This is the latest recevied weather packets stored in our database for station/object WE1C. If no packets are shown the sender has not sent any weather packets the latest 10 day(s).
| Time | Temp. | Humidity | Pressure | Rain* | Wind** | Luminosity | Snow |
|---|---|---|---|---|---|---|---|
| 1777929966 | 20.56° C | 34% | 1036.3 hPa | 0 mm | - | 111 W/m² | - |
| 1777929664 | 20.56° C | 33% | 1036.3 hPa | 0 mm | - | 83 W/m² | - |
| 1777929361 | 20.56° C | 34% | 1036.4 hPa | 0 mm | - | 89 W/m² | - |
| 1777929057 | 20° C | 35% | 1036.6 hPa | 0 mm | - | 120 W/m² | - |
| 1777928755 | 20° C | 34% | 1036.3 hPa | 0 mm | - | 95 W/m² | - |
| 1777928451 | 20.56° C | 34% | 1036.4 hPa | 0 mm | - | 97 W/m² | - |
| 1777928149 | 20° C | 34% | 1036.3 hPa | 0 mm | - | 126 W/m² | - |
| 1777927847 | 20° C | 35% | 1036.3 hPa | 0 mm | - | 96 W/m² | - |
| 1777927544 | 20° C | 34% | 1036.3 hPa | 0 mm | - | 121 W/m² | - |
| 1777927243 | 20.56° C | 33% | 1036.1 hPa | 0 mm | - | 112 W/m² | - |
| 1777926941 | 21.11° C | 32% | 1036.4 hPa | 0 mm | - | 151 W/m² | - |
| 1777926638 | 21.67° C | 32% | 1036.1 hPa | 0 mm | - | 269 W/m² | - |
| 1777926333 | 21.11° C | 31% | 1036.2 hPa | 0 mm | - | 350 W/m² | - |
| 1777926031 | 21.11° C | 31% | 1036.4 hPa | 0 mm | - | 363 W/m² | - |
| 1777925727 | 20.56° C | 32% | 1036.2 hPa | 0 mm | - | 296 W/m² | - |
| 1777925426 | 21.11° C | 33% | 1036.5 hPa | 0 mm | - | 248 W/m² | - |
| 1777925121 | 21.67° C | 31% | 1036.5 hPa | 0 mm | - | 583 W/m² | - |
| 1777924819 | 21.67° C | 32% | 1036.5 hPa | 0 mm | - | 610 W/m² | - |
| 1777924514 | 21.67° C | 31% | 1036.3 hPa | 0 mm | - | 589 W/m² | - |
| 1777924211 | 21.67° C | 31% | 1036.3 hPa | 0 mm | - | 111 W/m² | - |
| 1777923908 | 21.11° C | 32% | 1036.4 hPa | 0 mm | - | 616 W/m² | - |
| 1777923603 | 20° C | 33% | 1036.5 hPa | 0 mm | - | 681 W/m² | - |
| 1777923300 | 21.11° C | 32% | 1036.5 hPa | 0 mm | - | 161 W/m² | - |
| 1777922999 | 21.67° C | 32% | 1036.5 hPa | 0 mm | - | 667 W/m² | - |
| 1777922696 | 21.67° C | 31% | 1036.5 hPa | 0 mm | - | 596 W/m² | - |
* Rain latest hour (hover to see other rain measurements)
** Current wind speed in m/s (hover to see current wind gust speed)